Weather observations for the past three days for
Morristown Municipal
Imperial (Metric)
Date Time (edt) Wind (mph) Vis. (mi.) Weather Sky Cond. Temperature (ºF) Relative Humidity Wind Chill (°F) Heat Index (°F) Pressure Precipitation (in)
Air Dwpt 6 hour altimeter (in) sea level (mb) 1 hr 3 hr 6 hr
Max. Min.
13 15:51 SW 12 G 18 10.00 Partly Cloudy SCT065 84.2 59 43% 84 29.97 0.0
13 15:50 SW 12 G 18 10.00 Partly Cloudy SCT065 84.2 59 43% 84 29.97 0.0
13 14:45 SW 13 G 20 10.00 Mostly Cloudy BKN070 86 57.2 38% 85 29.98 0.0
13 13:45 SW 7 G 18 10.00 Partly Cloudy SCT160 84.2 55.4 37% 83 29.99 0.0
13 12:45 SW 10 10.00 Partly Cloudy SCT060 SCT250 82.4 57.2 42% 82 30 0.0
13 11:46 S 7 10.00 Partly Cloudy SCT250 82.4 59 45% 82 30.01 0.0
13 10:45 S 5 10.00 Partly Cloudy SCT250 80.6 60.8 51% 81 30.02 0.0
13 09:45 Calm 10.00 Mostly Cloudy BKN250 77 62.6 61% 79 30.03 0.0
13 08:45 Calm 10.00 Partly Cloudy SCT250 69.8 60.8 73% 30.04 0.0
13 07:45 Calm 10.00 Partly Cloudy SCT250 62.6 60.8 94% 30.03 0.0
13 06:45 Calm 10.00 Partly Cloudy SCT250 57.2 57.2 100% 30.04 0.0
13 06:35 Calm 10.00 Fair CLR 55.4 53.6 94% 30.03 0.0
13 06:15 Calm 10.00 Fair CLR 53.6 53.6 100% 30.03 0.0
13 05:55 Calm 10.00 Fair CLR 51.8 51.8 100% 30.03 0.0
13 05:35 Calm 10.00 Fair CLR 51.8 51.8 100% 30.03 0.0
13 05:15 Calm 10.00 Fair CLR 51.8 51.8 100% 30.02 0.0
13 04:55 Calm 10.00 Fair CLR 51.8 51.8 100% 30.02 0.0
13 04:35 Calm 10.00 Fair CLR 51.8 51.8 100% 30.01 0.0
13 04:15 Calm 7.00 Fair CLR 51.8 51.8 100% 30.01 0.0
13 03:55 Calm 10.00 Fair CLR 53.6 51.8 94% 30.01 0.0
13 03:35 Calm 7.00 Fair CLR 51.8 51.8 100% 30.01 0.0
13 03:15 Calm 10.00 Fair CLR 53.6 51.8 94% 30.01 0.0
13 02:55 Calm 10.00 Fair CLR 53.6 53.6 100% 30 0.0
13 02:35 Calm 7.00 Fair CLR 53.6 53.6 100% 30.01 0.0
13 02:15 Calm 10.00 Fair CLR 53.6 53.6 100% 30 0.0
13 01:55 Calm 10.00 Fair CLR 53.6 53.6 100% 30.01 0.0
13 01:35 Calm 10.00 Fair CLR 53.6 53.6 100% 30.01 0.0
13 01:15 Calm 10.00 Fair CLR 55.4 53.6 94% 30.01 0.0
13 00:55 Calm 10.00 Fair CLR 55.4 53.6 94% 30.01 0.0
13 00:35 Calm 10.00 Fair CLR 55.4 53.6 94% 30.02 0.0
13 00:15 Calm 10.00 Fair CLR 55.4 53.6 94% 30.02 0.0
12 23:55 Calm 10.00 Fair CLR 55.4 55.4 100% 30.02 0.0
12 23:35 Calm 10.00 Fair CLR 57.2 55.4 94% 30.02 0.0
12 23:15 Calm 10.00 Fair CLR 57.2 55.4 94% 30.02 0.0
12 22:55 Calm 10.00 Fair CLR 57.2 55.4 94% 30.01 0.0
12 22:35 Calm 10.00 Fair CLR 59 55.4 88% 30.02 0.0
12 21:59 Calm 10.00 Clear SKC 59 57.2 94% 30.02 0.0
12 20:55 Calm 10.00 A Few Clouds FEW160 62.6 57.2 83% 30 0.0
12 19:50 Calm 10.00 A Few Clouds FEW160 73.4 53.6 50% 29.99 0.0
12 18:50 Calm 10.00 Partly Cloudy SCT065 75.2 53.6 47% 78 29.99 0.0
12 17:46 W 6 10.00 Mostly Cloudy BKN065 75.2 53.6 47% 78 29.99 0.0
12 17:45 W 6 10.00 Mostly Cloudy BKN065 75.2 53.6 47% 78 29.99 0.0
12 16:50 NW 5 10.00 Mostly Cloudy BKN055 73.4 55.4 53% 30 0.0
12 15:45 NW 6 10.00 Mostly Cloudy BKN055 73.4 53.6 50% 30.01 0.0
12 14:45 W 9 10.00 Mostly Cloudy BKN055 73.4 53.6 50% 30.02 0.0
12 13:46 NW 7 10.00 Mostly Cloudy SCT049 BKN060 71.6 53.6 53% 30.03 0.0
12 13:45 NW 7 10.00 Mostly Cloudy SCT049 BKN060 71.6 53.6 53% 30.03 0.0
12 12:45 NW 7 10.00 Mostly Cloudy SCT050 BKN060 71.6 55.4 57% 30.04 0.0
12 11:45 NW 6 10.00 Overcast SCT047 OVC060 71.6 53.6 53% 30.05 0.0
12 10:45 N 6 10.00 Mostly Cloudy SCT045 BKN050 69.8 53.6 57% 30.05 0.0
12 09:45 NW 6 10.00 Partly Cloudy SCT060 69.8 55.4 60% 30.05 0.0
12 08:46 E 3 10.00 Partly Cloudy SCT060 68 57.2 69% 30.05 0.0
12 07:46 Calm 10.00 Mostly Cloudy BKN060 64.4 57.2 78% 30.06 0.0
12 07:45 Calm 10.00 Mostly Cloudy BKN060 64.4 57.2 78% 30.06 0.0
12 06:35 Calm 10.00 Fair CLR 59 57.2 94% 30.04 0.0
12 06:15 Calm 10.00 Partly Cloudy SCT065 57.2 55.4 94% 30.04 0.0
12 05:55 Calm 10.00 Overcast OVC065 57.2 55.4 94% 30.04 0.0
12 05:35 Calm 10.00 Overcast OVC065 57.2 55.4 94% 30.03 0.0
12 05:15 Calm 10.00 Overcast OVC065 57.2 55.4 94% 30.03 0.0
12 04:55 Calm 10.00 Mostly Cloudy BKN065 59 55.4 88% 30.02 0.0
12 04:35 Calm 10.00 Overcast OVC065 59 55.4 88% 30.01 0.0
12 04:15 Calm 10.00 Overcast OVC065 60.8 55.4 83% 30 0.0
12 03:55 Calm 10.00 Overcast OVC065 60.8 53.6 77% 30 0.0
12 03:35 N 3 10.00 Overcast SCT050 OVC065 60.8 53.6 77% 30.01 0.0
12 03:15 Calm 10.00 Overcast OVC060 62.6 53.6 73% 30.01 0.0
12 02:55 NW 3 10.00 Overcast OVC060 60.8 53.6 77% 30.01 0.0
12 02:35 Calm 10.00 Overcast OVC060 62.6 53.6 73% 30.01 0.0
12 02:15 NW 5 10.00 Overcast OVC060 62.6 53.6 73% 30.01 0.0
12 01:55 NW 3 10.00 Overcast BKN060 OVC080 62.6 53.6 73% 30.01 0.0
12 01:35 NW 3 10.00 Overcast SCT055 OVC075 62.6 53.6 73% 30.01 0.0
12 01:15 NW 3 10.00 Overcast SCT049 OVC065 62.6 53.6 73% 30.01 0.0
12 00:55 N 3 10.00 Overcast OVC047 62.6 53.6 73% 30.02 0.0
12 00:35 Calm 10.00 Overcast BKN047 OVC055 62.6 53.6 73% 30.02 0.0
12 00:15 Calm 10.00 Mostly Cloudy SCT047 BKN065 60.8 55.4 83% 30.02 0.0
11 23:55 Calm 10.00 Mostly Cloudy BKN065 62.6 53.6 73% 30.01 0.0
11 23:35 N 5 10.00 Overcast SCT049 OVC065 64.4 53.6 68% 30.01 0.0
11 23:15 N 3 10.00 Overcast OVC049 64.4 53.6 68% 30 0.0
11 22:55 N 3 10.00 Overcast OVC049 64.4 53.6 68% 30 0.0
11 22:35 Calm 10.00 Overcast OVC055 62.6 57.2 83% 29.99 0.0
11 21:45 Calm 10.00 Mostly Cloudy SCT045 BKN065 62.6 55.4 77% 29.98 0.0
11 20:45 N 5 10.00 Mostly Cloudy SCT049 BKN100 66.2 57.2 73% 29.96 0.0
11 19:55 Calm 10.00 Mostly Cloudy BKN047 68 60.8 78% 29.95 0.0
11 18:45 SE 3 10.00 Mostly Cloudy SCT047 BKN090 68 59 73% 29.94 0.0
11 17:46 NW 5 10.00 Light Rain BKN050 68 57.2 69% 29.93 0.0
11 17:45 NW 5 10.00 Mostly Cloudy BKN050 68 57.2 69% 29.93 0.0
11 16:45 Calm 10.00 Mostly Cloudy SCT080 BKN090 71.6 55.4 57% 29.93 0.0
11 15:45 NW 6 10.00 Mostly Cloudy SCT070 BKN080 71.6 55.4 57% 29.94 0.0
11 14:45 Calm 10.00 Mostly Cloudy BKN080 71.6 53.6 53% 29.93 0.0
11 13:54 NW 5 10.00 Mostly Cloudy SCT044 BKN051 69.8 55.4 60% 29.93 0.0
11 12:54 NW 7 10.00 Mostly Cloudy SCT045 BKN060 71.6 55.4 57% 29.93 0.0
11 11:45 W 6 10.00 Mostly Cloudy SCT040 BKN050 69.8 55.4 60% 29.94 0.0
11 10:45 N 7 10.00 Mostly Cloudy BKN065 69.8 53.6 57% 29.94 0.0
11 09:45 NW 6 10.00 Mostly Cloudy SCT049 BKN065 68 53.6 60% 29.93 0.0
11 08:45 N 6 10.00 Partly Cloudy SCT070 64.4 55.4 73% 29.94 0.0
11 07:45 Calm 10.00 A Few Clouds FEW070 60.8 57.2 88% 29.93 0.0
11 06:45 Calm 10.00 A Few Clouds FEW070 53.6 53.6 100% 29.91 0.0
11 06:35 Calm 10.00 Fair CLR 53.6 53.6 100% 29.9 0.0
11 06:15 Calm 10.00 Fair CLR 53.6 53.6 100% 29.9 0.0
11 05:55 Calm 10.00 Fair CLR 51.8 51.8 100% 29.89 0.0
11 05:35 Calm 10.00 Fair CLR 51.8 50 94% 29.88 0.0
11 05:15 Calm 10.00 Fair CLR 51.8 50 94% 29.88 0.0
11 04:55 Calm 10.00 Fair CLR 51.8 51.8 100% 29.87 0.0
11 04:35 Calm 10.00 Fair CLR 51.8 51.8 100% 29.87 0.0
11 04:15 Calm 10.00 Fair CLR 53.6 51.8 94% 29.87 0.0
11 03:55 Calm 10.00 Fair CLR 55.4 51.8 88% 29.87 0.0
11 03:35 Calm 10.00 Fair CLR 53.6 51.8 94% 29.86 0.0
11 03:15 Calm 10.00 Fair CLR 51.8 51.8 100% 29.86 0.0
11 02:55 Calm 10.00 Fair CLR 53.6 51.8 94% 29.86 0.0
11 02:35 Calm 10.00 Fair CLR 53.6 51.8 94% 29.85 0.0
11 02:15 NW 3 10.00 Fair CLR 53.6 51.8 94% 29.85 0.0
11 01:55 Calm 10.00 Fair CLR 53.6 51.8 94% 29.85 0.0
11 01:35 Calm 10.00 Fair CLR 53.6 51.8 94% 29.84 0.0
11 01:15 Calm 10.00 Fair CLR 53.6 51.8 94% 29.84 0.0
11 00:35 Calm 10.00 Fair CLR 55.4 51.8 88% 29.83 0.0
11 00:15 Calm 10.00 Fair CLR 55.4 51.8 88% 29.83 0.0
10 23:55 Calm 10.00 Fair CLR 55.4 53.6 94% 29.82 0.0
10 23:35 Calm 10.00 Fair CLR 57.2 53.6 88% 29.82 0.0
10 23:15 Calm 10.00 Fair CLR 59 51.8 77% 29.81 0.0
10 22:55 Calm 10.00 Partly Cloudy SCT060 59 51.8 77% 29.8 0.0
10 22:35 Calm 10.00 Mostly Cloudy BKN060 60.8 51.8 72% 29.79 0.0
10 21:45 N 5 10.00 Mostly Cloudy BKN070 64.4 53.6 68% 29.77 0.0
10 20:45 Calm 10.00 Mostly Cloudy BKN065 62.6 55.4 77% 29.74 0.0
10 19:45 N 5 10.00 Mostly Cloudy BKN090 69.8 53.6 57% 29.72 0.0
10 18:50 N 5 10.00 Mostly Cloudy SCT060 BKN080 71.6 53.6 53% 29.71 0.0
10 17:45 NW 3 10.00 Mostly Cloudy SCT060 BKN090 71.6 51.8 50% 29.7 0.0
10 16:45 W 9 10.00 Mostly Cloudy SCT060 BKN090 75.2 50 41% 78 29.7 0.0
Date Time (edt) Wind (mph) Vis. (mi.) Weather Sky Cond. Air Dwpt Max. Min. Relative Humidity Wind Chill (°F) Heat Index (°F) altimeter (in) sea level (mb) 1 hr 3 hr 6 hr
6 hour
Temperature (ºF) Pressure Precipitation (in)